This demonstration page uses our WeatherBlox Daily Observations layout. Learn more.

Left ArrowRight Arrow

34.02893, -84.19858

Hourly Observations for July 27, 2018

Temp ( °F °C ) Dew Point ( °F °C ) Humidity (%) Winds ( mph kmh ) Pressure ( in mb ) Visibility ( mi km ) Precip ( " mm )
12:53 am 00:53 Clear 68 20 65 18.3 90 90 Calm 29.97 1015 10 16 0.00 0.00
1:53 am 01:53 Clear 68 20 65 18.3 90 90 Calm 29.95 1014 10 16 0.00 0.00
2:53 am 02:53 Clear 67 19.4 65 18.3 93 93 Calm 29.95 1014 10 16 0.00 0.00
3:53 am 03:53 Clear 66 18.9 65 18.3 96 96 Calm 29.96 1015 10 16 0.00 0.00
4:53 am 04:53 Clear 66 18.9 65 18.3 96 96 Calm 29.96 1014 9 14 0.00 0.00
5:53 am 05:53 Clear 66 18.9 64 17.8 93 93 Calm 29.96 1015 9 14 0.00 0.00
6:53 am 06:53 Sunny with Mist and Fog 66 18.9 64 17.8 93 93 Calm 29.98 1015 6 10 0.00 0.00
7:53 am 07:53 Sunny 69 20.6 67 19.4 93 93 Calm 29.98 1015 8 13 0.00 0.00
8:53 am 08:53 Sunny 76 24.4 67 19.4 74 74 Calm 30.01 1016 9 14 0.00 0.00
9:53 am 09:53 Sunny 83 28.3 67 19.4 59 59 N 3 6 30.01 1016 10 16 0.00 0.00
10:53 am 10:53 Sunny 85 29.4 68 20 57 57 W 5 7 30.01 1016 10 16 0.00 0.00
11:53 am 11:53 Sunny 86 30 65 18.3 49 49 VRB 7 11 30.02 1017 10 16 0.00 0.00
12:53 pm 12:53 Partly Cloudy 87 30.6 64 17.8 46 46 W 8 13 30.02 1017 10 16 0.00 0.00
1:53 pm 13:53 Sunny 88 31.1 63 17.2 43 43 W 5 7 30.00 1016 10 16 0.00 0.00
2:53 pm 14:53 Mostly Sunny 89 31.7 65 18.3 45 45 WNW 9 15 29.99 1016 10 16 0.00 0.00
3:53 pm 15:53 Mostly Sunny 90 32.2 65 18.3 44 44 WNW 10 17 29.98 1015 10 16 0.00 0.00
4:53 pm 16:53 Mostly Sunny 88 31.1 65 18.3 46 46 NW 8 13 29.98 1015 10 16 0.00 0.00
5:53 pm 17:53 Mostly Sunny 88 31.1 66 18.9 48 48 WNW 9 15 29.98 1015 10 16 0.00 0.00
6:53 pm 18:53 Mostly Cloudy 86 30 68 20 55 55 NNW 9 15 29.99 1016 9 14 0.00 0.00
7:53 pm 19:53 Sunny 84 28.9 68 20 59 59 NNW 7 11 29.99 1016 9 14 0.00 0.00
8:53 pm 20:53 Clear 82 27.8 68 20 63 63 N 7 11 29.99 1016 10 16 0.00 0.00
9:53 pm 21:53 Clear 81 27.2 69 20.6 67 67 NNW 6 9 29.98 1015 10 16 0.00 0.00
10:53 pm 22:53 Clear 77 25 70 21.1 79 79 N 3 6 30.00 1016 10 16 0.00 0.00
11:53 pm 23:53 Clear 79 26.1 69 20.6 72 72 VRB 5 7 30.01 1016 10 16 0.00 0.00

Powered by AerisWeather